Hourly Weather Santa Fe

Today, 28 September, Monday

Time Temperature Precipitation Wind Pressure Humidity
00:00 +13°C° 0 mm 2 mps 760 mmHg 81%
01:00 +12°C° 0 mm 2 mps 759 mmHg 83%
02:00 +12°C° 0 mm 2 mps 759 mmHg 86%
03:00 +12°C° 0 mm 2 mps 759 mmHg 87%
04:00 +10°C° 0 mm 2 mps 759 mmHg 88%
05:00 +10°C° 0 mm 2 mps 759 mmHg 89%
06:00 +13°C° 0 mm 2 mps 760 mmHg 78%
07:00 +15°C° 0 mm 2 mps 760 mmHg 68%
08:00 +16°C° 0 mm 2 mps 761 mmHg 57%
09:00 +19°C° 0 mm 1 mps 761 mmHg 49%
10:00 +22°C° 0 mm 1 mps 761 mmHg 41%
11:00 +24°C° 0 mm 1 mps 760 mmHg 33%
12:00 +24°C° 0 mm 1 mps 760 mmHg 32%
13:00 +25°C° 0 mm 1 mps 759 mmHg 31%
14:00 +25°C° 0 mm 1 mps 758 mmHg 30%
15:00 +25°C° 0 mm 1 mps 758 mmHg 34%
16:00 +24°C° 0 mm 1 mps 757 mmHg 38%
17:00 +23°C° 0 mm 1 mps 757 mmHg 42%
18:00 +20°C° 0 mm 2 mps 757 mmHg 44%
19:00 +18°C° 0 mm 2 mps 757 mmHg 45%
20:00 +16°C° 0 mm 3 mps 757 mmHg 47%
21:00 +16°C° 0 mm 3 mps 758 mmHg 52%
22:00 +14°C° 0 mm 3 mps 758 mmHg 56%
23:00 +13°C° 0 mm 3 mps 758 mmHg 61%

Tomorrow, 29 September, Tuesday

Time Temperature Precipitation Wind Pressure Humidity
00:00 +13°C° 0 mm 3 mps 758 mmHg 63%
01:00 +13°C° 0 mm 4 mps 757 mmHg 64%
02:00 +12°C° 0 mm 4 mps 757 mmHg 66%
03:00 +12°C° 0 mm 4 mps 757 mmHg 67%
04:00 +12°C° 0 mm 4 mps 756 mmHg 68%
05:00 +12°C° 0 mm 4 mps 756 mmHg 70%
06:00 +13°C° 0 mm 4 mps 756 mmHg 66%
07:00 +15°C° 0 mm 5 mps 757 mmHg 63%
08:00 +17°C° 0 mm 6 mps 757 mmHg 59%
09:00 +20°C° 0 mm 6 mps 756 mmHg 54%
10:00 +22°C° 0 mm 6 mps 756 mmHg 49%
11:00 +24°C° 0 mm 6 mps 755 mmHg 45%
12:00 +26°C° 0 mm 5 mps 754 mmHg 43%
13:00 +27°C° 0 mm 5 mps 754 mmHg 41%
14:00 +28°C° 0 mm 5 mps 753 mmHg 39%
15:00 +27°C° 0 mm 4 mps 753 mmHg 43%
16:00 +26°C° 0 mm 4 mps 752 mmHg 47%
17:00 +26°C° 0 mm 3 mps 752 mmHg 50%
18:00 +24°C° 0 mm 3 mps 753 mmHg 60%
19:00 +21°C° 0 mm 3 mps 753 mmHg 69%
20:00 +19°C° 0 mm 3 mps 754 mmHg 79%
21:00 +18°C° 0 mm 3 mps 754 mmHg 82%
22:00 +18°C° 0 mm 3 mps 754 mmHg 85%
23:00 +17°C° 0 mm 3 mps 754 mmHg 88%

Day after tomorrow, 30 September, Wednesday

Time Temperature Precipitation Wind Pressure Humidity
00:00 +17°C° 0 mm 3 mps 754 mmHg 88%
01:00 +17°C° 0 mm 3 mps 753 mmHg 88%
02:00 +17°C° 0 mm 3 mps 753 mmHg 88%
03:00 +16°C° 0 mm 3 mps 753 mmHg 88%
04:00 +16°C° 0 mm 3 mps 753 mmHg 88%
05:00 +16°C° 0 mm 3 mps 752 mmHg 88%
06:00 +18°C° 0 mm 3 mps 753 mmHg 82%
07:00 +20°C° 0 mm 4 mps 753 mmHg 76%
08:00 +21°C° 0 mm 4 mps 753 mmHg 70%
09:00 +25°C° 0.1 mm 4 mps 752 mmHg 65%
10:00 +27°C° 0.1 mm 4 mps 752 mmHg 59%
11:00 +30°C° 0.1 mm 4 mps 752 mmHg 54%
12:00 +31°C° 0.1 mm 3 mps 751 mmHg 53%
13:00 +33°C° 0.1 mm 3 mps 750 mmHg 51%
14:00 +34°C° 0.1 mm 2 mps 749 mmHg 50%
15:00 +32°C° 0 mm 2 mps 749 mmHg 53%
16:00 +32°C° 0 mm 2 mps 749 mmHg 56%
17:00 +32°C° 0 mm 1 mps 748 mmHg 59%
18:00 +30°C° 0 mm 2 mps 749 mmHg 66%
19:00 +28°C° 0 mm 2 mps 749 mmHg 73%
20:00 +26°C° 0 mm 3 mps 749 mmHg 80%
21:00 +25°C° 0 mm 3 mps 750 mmHg 84%
22:00 +25°C° 0 mm 3 mps 750 mmHg 88%
23:00 +24°C° 0 mm 3 mps 751 mmHg 92%

1 October, Thursday

Time Temperature Precipitation Wind Pressure Humidity
00:00 +22°C° 0 mm 4 mps 751 mmHg 91%
01:00 +21°C° 0 mm 5 mps 752 mmHg 90%
02:00 +20°C° 0 mm 6 mps 752 mmHg 89%
03:00 +20°C° 0 mm 6 mps 753 mmHg 80%
04:00 +19°C° 0 mm 6 mps 753 mmHg 70%
05:00 +19°C° 0 mm 6 mps 754 mmHg 61%
06:00 +19°C° 0 mm 6 mps 755 mmHg 54%
07:00 +19°C° 0 mm 6 mps 756 mmHg 46%
08:00 +19°C° 0 mm 6 mps 756 mmHg 38%
09:00 +19°C° 0 mm 6 mps 757 mmHg 38%
10:00 +19°C° 0 mm 6 mps 757 mmHg 38%
11:00 +20°C° 0 mm 6 mps 758 mmHg 38%
12:00 +20°C° 0 mm 6 mps 757 mmHg 37%
13:00 +20°C° 0 mm 6 mps 757 mmHg 37%
14:00 +20°C° 0 mm 7 mps 757 mmHg 36%
15:00 +19°C° 0 mm 6 mps 758 mmHg 38%
16:00 +17°C° 0 mm 6 mps 758 mmHg 40%
17:00 +16°C° 0 mm 6 mps 758 mmHg 42%
18:00 +16°C° 0 mm 6 mps 759 mmHg 43%
19:00 +16°C° 0 mm 6 mps 759 mmHg 45%
20:00 +16°C° 0 mm 7 mps 759 mmHg 46%
21:00 +16°C° 0 mm 7 mps 760 mmHg 46%
22:00 +16°C° 0 mm 7 mps 761 mmHg 46%
23:00 +15°C° 0 mm 6 mps 762 mmHg 45%

2 October, Friday

Time Temperature Precipitation Wind Pressure Humidity
00:00 +15°C° 0 mm 6 mps 762 mmHg 47%
01:00 +14°C° 0 mm 6 mps 762 mmHg 49%
02:00 +14°C° 0 mm 6 mps 762 mmHg 51%
03:00 +13°C° 0 mm 6 mps 763 mmHg 54%
04:00 +11°C° 0 mm 7 mps 764 mmHg 57%
05:00 +11°C° 0 mm 7 mps 765 mmHg 59%
06:00 +10°C° 0 mm 7 mps 766 mmHg 59%
07:00 +10°C° 0 mm 7 mps 766 mmHg 59%
08:00 +10°C° 0 mm 7 mps 767 mmHg 59%
09:00 +11°C° 0 mm 7 mps 767 mmHg 55%
10:00 +11°C° 0 mm 6 mps 767 mmHg 51%
11:00 +13°C° 0 mm 6 mps 767 mmHg 47%
12:00 +14°C° 0 mm 6 mps 767 mmHg 45%
13:00 +14°C° 0 mm 6 mps 767 mmHg 42%
14:00 +15°C° 0 mm 6 mps 766 mmHg 40%
15:00 +15°C° 0 mm 6 mps 766 mmHg 44%
16:00 +15°C° 0 mm 6 mps 766 mmHg 48%
17:00 +14°C° 0 mm 6 mps 766 mmHg 52%
18:00 +14°C° 0 mm 6 mps 767 mmHg 55%
19:00 +13°C° 0 mm 5 mps 767 mmHg 58%
20:00 +13°C° 0 mm 5 mps 768 mmHg 60%
21:00 +12°C° 0 mm 5 mps 768 mmHg 60%
22:00 +12°C° 0 mm 5 mps 769 mmHg 60%
23:00 +10°C° 0 mm 6 mps 769 mmHg 60%

3 October, Saturday

Time Temperature Precipitation Wind Pressure Humidity
00:00 +10°C° 0 mm 6 mps 769 mmHg 61%
01:00 +9°C° 0 mm 6 mps 769 mmHg 61%
02:00 +8°C° 0 mm 6 mps 769 mmHg 61%
03:00 +8°C° 0 mm 6 mps 769 mmHg 61%
04:00 +8°C° 0 mm 5 mps 769 mmHg 60%
05:00 +7°C° 0 mm 5 mps 769 mmHg 60%
06:00 +7°C° 0 mm 5 mps 769 mmHg 58%
07:00 +7°C° 0 mm 5 mps 769 mmHg 56%
08:00 +7°C° 0 mm 5 mps 769 mmHg 54%
09:00 +8°C° 0 mm 5 mps 769 mmHg 53%
10:00 +9°C° 0 mm 5 mps 769 mmHg 52%
11:00 +12°C° 0 mm 4 mps 768 mmHg 52%
12:00 +12°C° 0 mm 5 mps 768 mmHg 52%
13:00 +13°C° 0 mm 5 mps 767 mmHg 53%
14:00 +13°C° 0 mm 5 mps 766 mmHg 54%
15:00 +13°C° 0 mm 5 mps 766 mmHg 56%
16:00 +13°C° 0 mm 4 mps 766 mmHg 58%
17:00 +13°C° 0 mm 4 mps 765 mmHg 60%
18:00 +13°C° 0 mm 4 mps 766 mmHg 62%
19:00 +13°C° 0 mm 4 mps 766 mmHg 63%
20:00 +13°C° 0 mm 4 mps 766 mmHg 64%
21:00 +13°C° 0 mm 4 mps 766 mmHg 66%
22:00 +13°C° 0 mm 3 mps 766 mmHg 67%
23:00 +13°C° 0 mm 3 mps 767 mmHg 69%
Show more